Date String (YYYY-MM-DD hh:mm:ss) UTC,Instrument flags,absolute air pressure of the measurement (hPa),sample flow rate (lpm),inlet stack bypass flow (lpm),air temperature of the measurement (°C),ambient temperature measured by the external sensor (°C),aerosol sample conditioner tube jacket temperature (°C),OPC LED temperature (°C),internal box temperature (°C),relative humidity of the measurement (%),span deviation,mass concentration of particles derived from Lorenz-Mie calculation of OPC scattering (μg/m³),mass concentration of particles derived from Lorenz-Mie calculation of OPC scattering (μg/m³),mass concentration of particles derived from Lorenz-Mie calculation of OPC scattering (μg/m³)
DateTimeUTC,F1_M11,P_M11,Q1_M11,Q2_M11,T1_M11,T2_M11,T3_M11,T4_M11,T5_M11,U1_M11,ZSPAN_M11,X2_M11,X0_M11,X1_M11
2023-10-08 18:00:00,SystemResetWarning,0833.4,4.99,000.00,028.6,027.2,000.0,037.0,030.4,14.0,0000.0,0002.49,0007.45,0001.94
2023-10-08 18:01:00,SystemResetWarning,0833.5,5.00,000.00,028.6,027.4,000.0,037.0,030.4,14.0,0000.0,0002.46,0007.72,0001.93
2023-10-08 18:02:00,SystemResetWarning,0833.4,5.01,000.00,028.7,027.5,000.0,037.1,030.5,13.7,0000.0,0002.49,0007.76,0001.94
2023-10-08 18:03:00,SystemResetWarning,0833.4,5.01,000.00,028.7,027.5,000.0,037.1,030.5,13.4,0000.0,0002.49,0007.74,0001.97
2023-10-08 18:04:00,SystemResetWarning,0833.5,4.98,000.00,028.7,026.0,000.0,037.0,030.4,13.7,0000.0,0002.53,0007.75,0002.00
2023-10-08 18:05:00,SystemResetWarning,0833.4,5.02,000.00,028.6,024.7,000.0,036.9,030.2,14.2,0000.0,0002.50,0006.43,0002.01
2023-10-08 18:06:00,SystemResetWarning,0833.4,5.02,000.00,028.5,024.7,000.0,036.9,030.1,14.0,0000.0,0002.50,0005.93,0002.02
2023-10-08 18:07:00,SystemResetWarning,0833.3,4.99,000.00,028.4,025.0,000.0,036.9,029.9,14.2,0000.0,0002.53,0006.02,0002.03
2023-10-08 18:08:00,SystemResetWarning,0833.3,5.00,000.00,028.4,025.4,000.0,036.9,029.9,13.6,0000.0,0002.51,0006.23,0002.04
2023-10-08 18:09:00,SystemResetWarning,0833.3,5.00,000.00,028.4,025.8,000.0,036.9,030.0,13.5,0000.0,0002.50,0007.32,0002.03
2023-10-08 18:10:00,SystemResetWarning,0833.3,5.01,000.00,028.4,026.1,000.0,036.9,030.0,13.6,0000.0,0002.56,0007.43,0002.05
2023-10-08 18:11:00,SystemResetWarning,0833.3,5.00,000.00,028.4,026.4,000.0,036.9,030.1,13.3,0000.0,0002.54,0007.46,0002.06
2023-10-08 18:12:00,SystemResetWarning,0833.3,5.00,000.00,028.4,026.7,000.0,036.9,030.2,13.0,0000.0,0002.59,0007.07,0002.07
2023-10-08 18:13:00,SystemResetWarning,0833.3,4.99,000.00,028.5,026.9,000.0,036.9,030.2,13.2,0000.0,0002.58,0006.94,0002.07
2023-10-08 18:14:00,SystemResetWarning,0833.3,4.99,000.00,028.5,027.1,000.0,036.9,030.3,13.0,0000.0,0002.55,0006.83,0002.05
2023-10-08 18:15:00,SystemResetWarning,0833.3,5.00,000.00,028.5,027.3,000.0,037.0,030.3,13.1,0000.0,0002.55,0006.81,0002.03
2023-10-08 18:16:00,SystemResetWarning,0833.2,5.00,000.00,028.6,027.4,000.0,037.0,030.4,13.2,0000.0,0002.61,0006.99,0002.03
2023-10-08 18:17:00,SystemResetWarning,0833.3,5.01,000.00,028.6,027.6,000.0,037.0,030.4,12.9,0000.0,0002.61,0006.98,0002.02
2023-10-08 18:18:00,SystemResetWarning,0833.2,5.00,000.00,028.7,027.4,000.0,037.0,030.5,13.0,0000.0,0002.58,0006.76,0002.02
2023-10-08 18:19:00,SystemResetWarning,0833.2,4.98,000.00,028.7,025.8,000.0,036.9,030.3,13.1,0000.0,0002.56,0006.57,0002.02
2023-10-08 18:20:00,SystemResetWarning,0833.2,5.02,000.00,028.6,024.5,000.0,036.9,030.1,13.0,0000.0,0002.57,0005.56,0002.03
2023-10-08 18:21:00,SystemResetWarning,0833.2,4.99,000.00,028.5,024.6,000.0,036.8,030.0,12.9,0000.0,0002.53,0005.23,0002.03
2023-10-08 18:22:00,SystemResetWarning,0833.2,4.99,000.00,028.4,024.9,000.0,036.9,029.9,13.0,0000.0,0002.49,0005.13,0002.01
2023-10-08 18:23:00,SystemResetWarning,0833.2,5.00,000.00,028.4,025.3,000.0,036.9,029.9,13.4,0000.0,0002.45,0005.12,0001.98
2023-10-08 18:24:00,SystemResetWarning,0833.1,5.01,000.00,028.4,025.8,000.0,036.9,030.0,13.4,0000.0,0002.42,0004.99,0001.98
2023-10-08 18:25:00,SystemResetWarning,0833.2,4.99,000.00,028.4,026.1,000.0,036.9,030.0,13.6,0000.0,0002.44,0005.05,0001.98
2023-10-08 18:26:00,SystemResetWarning,0833.2,5.00,000.00,028.4,026.4,000.0,036.9,030.1,13.7,0000.0,0002.43,0005.59,0001.98
2023-10-08 18:27:00,SystemResetWarning,0833.2,5.00,000.00,028.4,026.7,000.0,036.9,030.1,13.8,0000.0,0002.36,0006.29,0001.96
2023-10-08 18:28:00,SystemResetWarning,0833.2,5.01,000.00,028.5,026.9,000.0,036.9,030.2,13.5,0000.0,0002.33,0005.94,0001.95
2023-10-08 18:29:00,SystemResetWarning,0833.1,5.01,000.00,028.5,027.1,000.0,036.9,030.3,13.5,0000.0,0002.32,0005.26,0001.94
2023-10-08 18:30:00,SystemResetWarning,0833.1,4.99,000.00,028.5,027.3,000.0,036.9,030.3,13.4,0000.0,0002.32,0005.24,0001.95
2023-10-08 18:31:00,SystemResetWarning,0833.1,4.99,000.00,028.6,027.5,000.0,037.0,030.4,13.3,0000.0,0002.31,0005.22,0001.94
2023-10-08 18:32:00,SystemResetWarning,0833.1,5.00,000.00,028.6,027.6,000.0,037.0,030.5,13.4,0000.0,0002.29,0005.09,0001.93
2023-10-08 18:33:00,SystemResetWarning,0833.2,5.00,000.00,028.6,026.6,000.0,037.0,030.4,13.6,0000.0,0002.29,0005.03,0001.94
2023-10-08 18:34:00,SystemResetWarning,0833.1,5.00,000.00,028.6,024.8,000.0,036.9,030.2,13.4,0000.0,0002.29,0004.83,0001.95
2023-10-08 18:35:00,SystemResetWarning,0833.1,5.00,000.00,028.5,024.5,000.0,036.8,030.1,13.3,0000.0,0002.28,0004.77,0001.95
2023-10-08 18:36:00,SystemResetWarning,0833.0,5.02,000.00,028.4,024.8,000.0,036.8,029.9,13.7,0000.0,0002.25,0004.67,0001.95
2023-10-08 18:37:00,SystemResetWarning,0833.2,5.01,000.00,028.4,025.2,000.0,036.8,029.9,13.6,0000.0,0002.22,0004.16,0001.96
2023-10-08 18:38:00,SystemResetWarning,0833.0,4.98,000.00,028.3,025.6,000.0,036.8,029.9,13.5,0000.0,0002.23,0004.73,0001.97
2023-10-08 18:39:00,SystemResetWarning,0833.1,5.00,000.00,028.3,026.0,000.0,036.9,030.0,13.3,0000.0,0002.25,0004.69,0001.98
2023-10-08 18:40:00,SystemResetWarning,0833.1,5.00,000.00,028.4,026.3,000.0,036.9,030.0,13.3,0000.0,0002.24,0004.67,0001.98
2023-10-08 18:41:00,SystemResetWarning,0833.1,5.01,000.00,028.4,026.6,000.0,036.9,030.1,13.6,0000.0,0002.29,0004.90,0001.97
2023-10-08 18:42:00,SystemResetWarning,0832.9,4.99,000.00,028.4,026.8,000.0,036.9,030.2,13.3,0000.0,0002.33,0005.01,0001.96
2023-10-08 18:43:00,SystemResetWarning,0833.0,5.00,000.00,028.4,027.0,000.0,036.9,030.2,13.5,0000.0,0002.35,0005.04,0001.96
2023-10-08 18:44:00,SystemResetWarning,0833.0,5.00,000.00,028.5,027.2,000.0,036.9,030.3,13.4,0000.0,0002.35,0005.02,0001.96
2023-10-08 18:45:00,SystemResetWarning,0832.9,5.00,000.00,028.5,027.4,000.0,036.9,030.3,13.4,0000.0,0002.32,0004.97,0001.95
2023-10-08 18:46:00,SystemResetWarning,0832.9,5.01,000.00,028.6,027.4,000.0,036.9,030.4,13.3,0000.0,0002.33,0005.22,0001.94
2023-10-08 18:47:00,SystemResetWarning,0833.0,4.98,000.00,028.6,026.2,000.0,036.9,030.3,13.3,0000.0,0002.37,0007.04,0001.93
2023-10-08 18:48:00,SystemResetWarning,0833.1,5.00,000.00,028.5,024.6,000.0,036.8,030.1,13.3,0000.0,0002.40,0008.05,0001.91
2023-10-08 18:49:00,SystemResetWarning,0833.2,5.01,000.00,028.4,024.5,000.0,036.8,030.0,13.1,0000.0,0002.43,0008.03,0001.88
2023-10-08 18:50:00,SystemResetWarning,0832.8,5.00,000.00,028.4,024.8,000.0,036.8,029.8,13.2,0000.0,0002.43,0007.88,0001.87
2023-10-08 18:51:00,SystemResetWarning,0832.8,5.01,000.00,028.3,025.2,000.0,036.8,029.8,13.1,0000.0,0002.40,0007.99,0001.86
2023-10-08 18:52:00,SystemResetWarning,0832.8,4.99,000.00,028.3,025.6,000.0,036.8,029.9,13.3,0000.0,0002.37,0008.14,0001.84
2023-10-08 18:53:00,SystemResetWarning,0832.8,5.00,000.00,028.3,026.0,000.0,036.8,029.9,13.4,0000.0,0002.31,0007.99,0001.82
2023-10-08 18:54:00,SystemResetWarning,0832.8,5.00,000.00,028.3,026.3,000.0,036.8,030.0,13.4,0000.0,0002.27,0008.03,0001.81
2023-10-08 18:55:00,SystemResetWarning,0832.7,5.00,000.00,028.3,026.6,000.0,036.8,030.1,13.2,0000.0,0002.26,0008.11,0001.79
2023-10-08 18:56:00,SystemResetWarning,0832.7,5.00,000.00,028.4,026.8,000.0,036.8,030.1,13.3,0000.0,0002.27,0008.89,0001.77
2023-10-08 18:57:00,SystemResetWarning,0832.9,4.99,000.00,028.4,027.0,000.0,036.8,030.2,13.0,0000.0,0002.25,0009.07,0001.76
2023-10-08 18:58:00,SystemResetWarning,0832.9,5.00,000.00,028.5,027.2,000.0,036.9,030.3,13.0,0000.0,0002.19,0008.20,0001.74
2023-10-08 18:59:00,SystemResetWarning,0832.7,5.00,000.00,028.5,027.4,000.0,036.9,030.3,13.2,0000.0,0002.14,0007.16,0001.73
